Weather History for KLXN - June, 2013

Change the Weather History Date:

Monday, June 3, 2013

  Actual Average Record
Temperature  
Mean Temperature 67 °F -  
Max Temperature 81 °F 75 °F 95 °F (2014)
Min Temperature 53 °F 50 °F 39 °F (1998)
Cooling Degree Days 2    
Growing Degree Days 17 (Base 50)    
Moisture  
Dew Point 52 °F    
Average Humidity 61    
Maximum Humidity 77    
Minimum Humidity 43    
Precipitation  
Precipitation 0.00 in - - ()
Sea Level Pressure  
Sea Level Pressure 29.82 in    
Wind  
Wind Speed 16 mph (SSE)    
Max Wind Speed 29 mph    
Max Gust Speed 37 mph    
Visibility 10 miles    
Events Rain    
Averages and records for this station are not official NWS values.
T = Trace of Precipitation, MM = Missing Value Source: NWS Daily Summary

Daily Weather History Graph

Daily Weather History Graph

Search for Another Location

Airport or City:

Trip Planner

Search our weather history database for the weather conditions in past years. The results will help you decide how hot, cold, wet, or windy it might be!

Date:

Astronomy

Jun. 03, 2013 Rise Set
Actual Time 6:09 AM CDT 9:05 PM CDT
Civil Twilight 5:36 AM CDT 9:38 PM CDT
Nautical Twilight 4:54 AM CDT 10:20 PM CDT
Astronomical Twilight 4:06 AM CDT 11:09 PM CDT
Moon 3:09 AM CDT (6/3) 4:36 PM CDT (6/3)
Length of Visible Light 16h 02m
Length of Day
14h 56m
Waning Crescent, 22% of the Moon is Illuminated
Jun 3
Waning Crescent
Jun 8
New
Jun 16
First Quarter
Jun 23
Full
Jun 29
Last Quarter

Hourly Weather History & Observations

Time (CDT) Temp. Heat Index Dew Point Humidity Pressure Visibility Wind Dir Wind Speed Gust Speed Precip Events Conditions
12:15 AM 58.1 °F - 44.6 °F 61% 29.98 in 10.0 mi SSE 12.7 mph - N/A   Clear
12:35 AM 57.4 °F - 44.6 °F 62% 29.98 in 7.0 mi SSE 10.4 mph - N/A   Clear
12:55 AM 57.2 °F - 44.2 °F 62% 29.97 in 10.0 mi SSE 12.7 mph - N/A   Clear
1:15 AM 56.7 °F - 44.6 °F 64% 29.97 in 10.0 mi SSE 11.5 mph - N/A   Clear
1:35 AM 55.8 °F - 45.0 °F 67% 29.96 in 10.0 mi SSE 9.2 mph - N/A   Clear
1:55 AM 55.4 °F - 45.3 °F 69% 29.96 in 10.0 mi SSE 10.4 mph - N/A   Clear
2:15 AM 55.0 °F - 45.5 °F 70% 29.96 in 10.0 mi SSE 9.2 mph - N/A   Clear
2:35 AM 54.9 °F - 45.9 °F 72% 29.96 in 10.0 mi SSE 9.2 mph - N/A   Clear
2:55 AM 54.9 °F - 45.9 °F 72% 29.95 in 10.0 mi SSE 9.2 mph - N/A   Clear
3:15 AM 54.9 °F - 45.7 °F 71% 29.95 in 10.0 mi SSE 11.5 mph - N/A   Clear
3:35 AM 55.0 °F - 45.5 °F 70% 29.95 in 10.0 mi SSE 11.5 mph - N/A   Clear
3:55 AM 54.9 °F - 45.5 °F 71% 29.94 in 10.0 mi SSE 12.7 mph - N/A   Clear
4:15 AM 55.0 °F - 45.5 °F 70% 29.93 in 10.0 mi SSE 15.0 mph - N/A   Clear
4:35 AM 54.5 °F - 45.7 °F 72% 29.93 in 10.0 mi SSE 11.5 mph - N/A   Clear
4:55 AM 54.3 °F - 45.9 °F 73% 29.93 in 10.0 mi SE 11.5 mph - N/A   Clear
5:15 AM 53.6 °F - 46.4 °F 77% 29.92 in 10.0 mi SSE 11.5 mph - N/A   Clear
5:35 AM 53.8 °F - 46.4 °F 76% 29.92 in 10.0 mi SE 11.5 mph - N/A   Clear
5:55 AM 53.6 °F - 46.4 °F 77% 29.92 in 10.0 mi SE 11.5 mph - N/A   Clear
6:15 AM 53.6 °F - 46.4 °F 77% 29.91 in 10.0 mi SE 11.5 mph 16.1 mph N/A   Clear
6:35 AM 53.6 °F - 46.4 °F 77% 29.91 in 10.0 mi SE 12.7 mph - N/A   Clear
6:55 AM 54.0 °F - 46.6 °F 76% 29.91 in 10.0 mi SE 13.8 mph - N/A   Clear
7:15 AM 54.5 °F - 46.9 °F 76% 29.91 in 10.0 mi SE 11.5 mph - N/A   Clear
7:35 AM 55.0 °F - 47.3 °F 75% 29.90 in 10.0 mi SE 16.1 mph - N/A   Clear
7:55 AM 56.3 °F - 48.4 °F 75% 29.90 in 10.0 mi SSE 16.1 mph 23.0 mph N/A   Clear
8:15 AM 58.1 °F - 49.3 °F 72% 29.89 in 10.0 mi SSE 23.0 mph 28.8 mph N/A   Clear
8:35 AM 59.2 °F - 50.0 °F 72% 29.88 in 10.0 mi SSE 28.8 mph - N/A   Clear
8:55 AM 60.4 °F - 50.0 °F 68% 29.86 in 10.0 mi SSE 27.6 mph 35.7 mph N/A   Clear
9:15 AM 61.5 °F - 50.9 °F 68% 29.86 in 10.0 mi SSE 21.9 mph 27.6 mph N/A   Clear
9:35 AM 62.6 °F - 51.1 °F 66% 29.85 in 10.0 mi SSE 26.5 mph 31.1 mph N/A   Clear
9:55 AM 63.5 °F - 51.4 °F 65% 29.85 in 10.0 mi SSE 25.3 mph 29.9 mph N/A   Clear
10:15 AM 65.3 °F - 52.5 °F 63% 29.84 in 10.0 mi SSE 21.9 mph 26.5 mph N/A   Clear
10:35 AM 66.6 °F - 53.1 °F 62% 29.83 in 10.0 mi SSE 21.9 mph 28.8 mph N/A   Clear
10:55 AM 68.2 °F - 53.2 °F 59% 29.83 in 10.0 mi SSE 24.2 mph 29.9 mph N/A   Clear
11:15 AM 68.5 °F - 53.4 °F 58% 29.82 in 10.0 mi SSE 23.0 mph 34.5 mph N/A   Clear
11:35 AM 70.0 °F - 54.0 °F 57% 29.82 in 10.0 mi SSE 24.2 mph 29.9 mph N/A   Clear
11:55 AM 70.3 °F - 54.1 °F 56% 29.81 in 10.0 mi SSE 25.3 mph 29.9 mph N/A   Clear
12:15 PM 71.1 °F - 54.1 °F 55% 29.80 in 10.0 mi SSE 24.2 mph 34.5 mph N/A   Clear
12:35 PM 72.5 °F - 55.0 °F 54% 29.78 in 10.0 mi SSE 26.5 mph 32.2 mph N/A   Clear
12:55 PM 73.4 °F - 54.7 °F 52% 29.78 in 10.0 mi SSE 24.2 mph 34.5 mph N/A   Clear
1:15 PM 74.1 °F - 55.0 °F 51% 29.78 in 10.0 mi SSE 24.2 mph 32.2 mph N/A   Clear
1:35 PM 74.8 °F - 55.6 °F 51% 29.76 in 10.0 mi South 21.9 mph 34.5 mph N/A   Clear
1:55 PM 75.6 °F - 55.6 °F 50% 29.76 in 10.0 mi SSE 21.9 mph 34.5 mph N/A   Clear
2:15 PM 76.8 °F - 55.9 °F 48% 29.75 in 10.0 mi South 24.2 mph 33.4 mph N/A   Clear
2:35 PM 77.9 °F - 55.8 °F 46% 29.74 in 10.0 mi South 24.2 mph 36.8 mph N/A   Clear
2:55 PM 78.4 °F - 55.6 °F 45% 29.73 in 10.0 mi SSE 24.2 mph 34.5 mph N/A   Clear
3:15 PM 79.7 °F - 56.1 °F 44% 29.72 in 10.0 mi South 26.5 mph 33.4 mph N/A   Clear
3:35 PM 79.7 °F - 55.4 °F 43% 29.72 in 10.0 mi SSE 24.2 mph 34.5 mph N/A   Clear
3:55 PM 79.9 °F - 55.9 °F 44% 29.73 in 10.0 mi South 23.0 mph 33.4 mph N/A   Clear
4:15 PM 80.6 °F 80.6 °F 56.1 °F 43% 29.73 in 10.0 mi South 20.7 mph 31.1 mph N/A   Clear
4:35 PM 80.6 °F 80.6 °F 56.5 °F 43% 29.72 in 10.0 mi South 21.9 mph 27.6 mph N/A   Clear
4:55 PM 80.6 °F 80.6 °F 56.3 °F 43% 29.71 in 10.0 mi South 21.9 mph 27.6 mph N/A   Clear
5:15 PM 81.5 °F 81.4 °F 56.8 °F 43% 29.70 in 10.0 mi SSE 23.0 mph 27.6 mph N/A   Clear
5:35 PM 81.7 °F 81.6 °F 57.6 °F 44% 29.69 in 10.0 mi South 19.6 mph 27.6 mph N/A   Clear
5:55 PM 81.7 °F 81.6 °F 57.6 °F 44% 29.69 in 10.0 mi SSE 18.4 mph 25.3 mph N/A   Clear
6:15 PM 81.5 °F 81.5 °F 57.7 °F 44% 29.71 in 10.0 mi South 19.6 mph 26.5 mph N/A   Clear
6:35 PM 79.0 °F - 57.9 °F 48% 29.71 in 10.0 mi SSE 15.0 mph 21.9 mph N/A   Clear
6:55 PM 78.3 °F - 57.9 °F 49% 29.71 in 10.0 mi SSE 15.0 mph 25.3 mph N/A   Clear
7:15 PM 77.5 °F - 58.1 °F 51% 29.71 in 10.0 mi SE 15.0 mph 23.0 mph N/A   Clear
7:35 PM 77.0 °F - 57.7 °F 51% 29.70 in 10.0 mi SE 19.6 mph 26.5 mph N/A   Clear
7:55 PM 76.3 °F - 57.9 °F 53% 29.70 in 10.0 mi SE 16.1 mph 24.2 mph N/A   Clear
8:15 PM 75.7 °F - 58.1 °F 54% 29.70 in 10.0 mi SE 17.3 mph 21.9 mph N/A   Clear
8:35 PM 74.8 °F - 58.3 °F 56% 29.70 in 10.0 mi ESE 13.8 mph 25.3 mph N/A   Clear
8:55 PM 73.6 °F - 58.1 °F 58% 29.69 in 10.0 mi ESE 19.6 mph 25.3 mph N/A   Clear
9:15 PM 72.5 °F - 57.7 °F 60% 29.69 in 10.0 mi ESE 17.3 mph 25.3 mph N/A   Clear
9:35 PM 71.8 °F - 57.9 °F 62% 29.71 in 10.0 mi ESE 16.1 mph 25.3 mph N/A   Clear
9:55 PM 71.4 °F - 58.1 °F 63% 29.74 in 10.0 mi ESE 17.3 mph 24.2 mph N/A   Clear
10:15 PM 70.7 °F - 58.1 °F 64% 29.75 in 10.0 mi ESE 12.7 mph 20.7 mph N/A   Clear
10:35 PM 70.3 °F - 58.1 °F 65% 29.75 in 10.0 mi East 13.8 mph 19.6 mph N/A   Clear
10:55 PM 69.4 °F - 58.1 °F 67% 29.74 in 10.0 mi ESE 12.7 mph 23.0 mph N/A   Clear
11:15 PM 69.3 °F - 58.1 °F 68% 29.78 in 10.0 mi East 10.4 mph - N/A   Clear
11:35 PM 69.1 °F - 58.1 °F 68% 29.88 in 10.0 mi North 16.1 mph - N/A   Scattered Clouds
11:55 PM 67.1 °F - 58.6 °F 74% 29.85 in 10.0 mi NE 11.5 mph - N/A Rain Light Rain